Location: Akdamlar
(36.8729°N, 30.5187°E)
Time: 19:13:18
(UTC+00:00)

BREEZE-M DEB (TANK) - Pass Details

Date: 18 September 2020
Orbit: 332 x 18712 km, 52.5° (Epoch: 26 October)

Event Time Altitude Azimuth Distance (km) Brightness Sun altitude
Rises 16:36:17 0° 208° (SSW) 2,098 6.1 -8.0°
Reaches altitude 10° 16:37:45 10° 199° (SSW) 1,373 5.0 -8.2°
Maximum altitude 16:40:10 42° 125° (SE) 754 3.1 -8.7°
Drops below altitude 10° 16:45:34 10° 54° (NE) 3,082 6.2 -9.8°
Sets 16:50:48 0° 50° (NE) 5,570 7.5 -10.8°
